Хальмер-Ю

Россия / Республика Коми     67°56′39″N   64°44′11″E
темп.,
°C
ветер,
м/с
пор.,
м/с
влажн.,
%
обл.,
%
осадки,
мм/ч
давл.,
гПа
погр.,
м
24 октября, вс
вс2400:00−5зсз71395100 0.3 986426
03:00−4зсз8149392 0.5 988683
06:00−4зсз91492100 0.1 990826
09:00−5зсз9159288 0.3 993736
12:00−5зсз8149389 0.0 997507
15:00−6зсз613915 0.1 1000322
18:00−8з511935 0.0 1001182
21:00−9з510905 0.0 1003147
25 октября, пн
пн2500:00−8з510919 0.0 1003146
03:00−10зюз369640 0.0 100470
06:00−11юз339786 0.0 100445
09:00−10юз389782 0.0 1004137
12:00−8зюз499390 0.0 1005192
15:00−9зюз489589 0.1 1005157
18:00−10зюз499682 0.1 1005137
21:00−11юз4995100 0.1 1005132
26 октября, вт
вт2600:00−12юз489668 0.1 1005126
03:00−12ююз479523 0.1 100590
06:00−11ююз489687 0.0 1004136
09:00−8юз51095100 0.4 1003382
12:00−7зюз5894100 1.1 1002409
15:00−7зсз5896100 1.3 1002306
18:00−9зсз3896100 0.2 1003171
21:00−8сз4796100 0.6 1003351
27 октября, ср
ср2700:00−8ссз469586 0.5 1004354
03:00−9сз61095100 0.8 1006376
06:00−10сз5109672 0.1 1008193
09:00−12зсз249885 0.1 100954
12:00−11з229660 0.0 101121
15:00−13ююз3397100 0.1 101141
18:00−12ююз359697 0.3 101179
21:00−12ю3596100 0.3 101198
28 октября, чт
чт2800:00−14ююв229867 0.1 101131
03:00−18ююв119954 0.1 10109
06:00−18юв1110036 0.0 10109
09:00−17вюв119819 0.0 10099
12:00−16всв11989 0.0 100910
15:00−18св229919 0.0 100910
18:00−18ссв229971 0.0 100910
21:00−18ссв2210092 0.0 100914